• Join FlightAware (Why Join?)
  • Login
  • US Flag GB Flag 
14:11 EST


 

Airport Tracker/Info


-or-


 

Live Flight TrackerFlight Track Log ✈ EJA922 ✈ 13-Aug-2013 ✈ KSGR - KAUS

Flight Track Log - Related Links

Times and Time Zones

All times are in EDT time to prevent confusion due to time zone crossing. See the EJA922 flight status page for this flight to view local times or setup timezone preferences in your user account.

Time Position Orientation Groundspeed Altitude Reporting Facility
EDT Latitude Longitude Course Direction KTS MPH feet Rate Location/Type
17:44 29.6078 -95.6553 176° South 149 171 900  Level Houston Center
17:45 29.5464 -95.6506 176° South 217 250 3,000 2,357 Climbing Houston Center
17:46 29.5244 -95.6069 120° Southeast 225 259 5,300 2,625 Climbing Houston Center
17:47 29.5658 -95.5525 49° Northeast 256 295 7,900 2,565 Climbing Houston Center
17:48 29.6353 -95.5778 342° North 292 336 10,600 2,419 Climbing Houston Center
17:49 29.6608 -95.6761 287° West 317 365 12,900 2,516 Climbing Houston Center
17:50 29.6858 -95.7819 285° West 338 389 15,800 3,194 Climbing Houston Center
17:51 29.7158 -95.9092 285° West 344 396 19,500 2,032 Climbing Houston Center
17:52 29.7506 -96.0161 291° West 355 409 20,000 244 Climbing Houston Center
17:53 29.7881 -96.1422 289° West 409 471 20,000 195 Level Houston Center
17:54 29.8247 -96.2706 288° West 421 484 20,400 1,065 Climbing Houston Center
17:55 29.8611 -96.4008 288° West 428 493 22,200 1,839 Climbing Houston Center
17:56 29.8975 -96.5264 289° West 419 482 24,200 1,839 Climbing Houston Center
17:57 29.9414 -96.6778 289° West 418 481 26,000 1,694 Climbing Houston Center
17:58 29.9786 -96.8083 288° West 429 494 27,700 968 Climbing Houston Center
17:59 30.0172 -96.9422 288° West 441 507 28,000 484 Climbing Houston Center
18:00 30.0575 -97.0889 288° West 475 547 28,700 1,113 Climbing Houston Center
18:01 30.1011 -97.2461 288° West 478 550 30,300 1,452 Climbing Houston Center
18:02 30.1419 -97.3936 288° West 477 549 31,700 829 Climbing Houston Center
18:03 30.1842 -97.5447 288° West 485 558 32,000 146 Climbing Houston Center
18:04 30.2286 -97.7028 288° West 504 580 32,000  Level Houston Center
18:05 30.2717 -97.8567 288° West 500 575 32,000  Level Houston Center
18:06 30.3175 -98.0250 288° West 480 552 32,000  Level Houston Center
18:07 30.3603 -98.1769 288° West 477 549 32,000  Level Houston Center
18:08 30.4417 -98.2947 309° West 470 541 32,000  Level Houston Center
18:09 30.5264 -98.4106 310° West 465 535 32,000  Level Houston Center
18:10 30.6089 -98.5253 310° West 460 529 32,000  Level Houston Center
18:11 30.6872 -98.6333 310° West 439 505 32,000  Level Houston Center
18:13 30.7628 -98.7394 310° West 425 489 32,000  Level Houston Center
18:14 30.8672 -98.7989 334° Northwest 426 490 32,000  Level Houston Center
18:15 30.9878 -98.8181 352° North 430 495 32,000  Level Houston Center
18:16 31.1303 -98.8394 353° North 434 499 32,000  Level Houston Center
18:17 31.2544 -98.8583 353° North 440 506 32,000  Level Houston Center
18:18 31.3797 -98.8778 352° North 447 514 32,000  Level Houston Center
18:19 31.5044 -98.8969 353° North 446 513 32,000  Level Houston Center
18:20 31.6272 -98.9156 353° North 442 509 32,000  Level Houston Center
18:20 31.7114 -98.9225 356° North 441 507 32,000  Level Fort Worth Center
18:21 31.8022 -98.8361 39° Northeast 384 442 32,000  Level Fort Worth Center
18:22 31.7747 -98.6939 103° East 316 364 32,000  Level Fort Worth Center
18:23 31.6536 -98.6825 175° South 256 295 32,000 -482 Level Fort Worth Center
18:24 31.5564 -98.7339 204° Southwest 459 528 31,100 -1,105 Descending Houston Center
18:25 31.4272 -98.7681 193° South 477 549 29,900 -1,317 Descending Houston Center
18:26 31.2897 -98.7725 182° South 488 562 28,400 -1,122 Descending Houston Center
18:27 31.1519 -98.7761 181° South 491 565 27,600 -1,210 Descending Houston Center
18:28 31.0106 -98.7808 182° South 500 575 25,900 -2,855 Descending Houston Center
18:29 30.8578 -98.7286 164° South 496 571 21,700 -3,194 Descending Houston Center
18:30 30.7819 -98.6117 127° Southeast 454 522 19,300 -1,306 Descending Houston Center
18:31 30.7631 -98.4725 99° East 434 499 19,000 -683 Descending Houston Center
18:33 30.7494 -98.3419 97° East 397 457 17,900 -2,244 Descending Houston Center
18:34 30.7381 -98.2319 97° East 344 396 14,400 -2,903 Descending Houston Center
18:35 30.7267 -98.1283 97° East 327 376 11,900 -1,984 Descending Houston Center
18:36 30.6969 -98.0364 111° Southeast 310 357 10,300 -1,597 Descending Houston Center
18:37 30.6481 -97.9619 127° Southeast 293 337 8,600 -1,150 Descending Houston Center
18:38 30.5983 -97.8814 126° Southeast 278 320 8,000 -634 Descending Houston Center
18:39 30.5503 -97.8033 126° Southeast 277 319 7,300 -1,228 Descending Houston Center
18:40 30.5047 -97.7303 126° Southeast 276 318 5,400 -1,113 Descending Houston Center
18:41 30.4467 -97.6772 142° Southeast 279 321 5,000 -629 Descending Houston Center
18:42 30.3803 -97.6603 168° South 249 287 4,100 -1,065 Descending Houston Center
18:43 30.3217 -97.6611 181° South 224 258 2,800 -968 Descending Houston Center
18:44 30.2814 -97.6586 177° South 171 197 2,100 -726 Descending Houston Center
18:45 30.2419 -97.6589 180° South 150 173 1,300 -488 Descending Houston Center
18:46 30.2000 -97.6569 178° South 145 167 1,100 -197 Descending Houston Center
18:48 30.1833 -97.6667 221° Southwest  Level FlightAware Approximate
18:55 30.1945 -97.6699 221° Southwest  Level Estimated